Theta_e
307 310 314 317 319 321 321 321 321 322 321 318 318 315 316 319 320 320 320 323 326 325 328 328 329 334 344 351 351 352 351 354 354 356 357 355 353 353 352 349 346 343 341 337 334 333 332 331 330 330 331 333 338 340 341 343 343 344 342 338 336 335 335 336 338 340 340 339 338 337 336 334 333 335 336 336 335 336 336 337 340 341 341 342 342 342 342 342 341 340 338 338 338 338 337 333 333
309 317 319 320 320 319 322 322 320 320 318 316 317 317 317 320 319 319 322 328 331 329 330 332 335 339 344 347 347 353 354 352 352 355 354 352 353 351 350 348 345 343 340 335 333 332 331 330 329 330 330 334 338 340 340 342 343 344 342 339 338 336 335 336 338 339 340 339 338 338 337 337 336 337 336 336 336 337 337 338 340 340 341 341 341 341 341 341 341 340 339 340 339 338 336 333 333
309 316 319 321 321 318 320 320 321 318 314 315 315 319 321 320 319 323 328 331 332 329 330 334 343 343 344 348 347 353 355 352 351 352 352 353 353 351 350 347 345 342 338 335 332 330 330 328 329 329 330 335 339 338 338 341 343 343 343 341 338 336 336 336 337 338 339 339 339 338 337 335 334 333 332 333 332 333 334 337 340 340 340 340 340 339 339 340 340 340 340 340 338 337 338 336 335
308 315 318 319 318 316 318 320 324 319 314 314 312 318 320 321 323 327 329 331 331 330 331 335 345 347 346 350 347 349 352 352 352 352 353 354 353 351 350 347 345 341 337 334 332 330 329 328 328 328 331 337 339 338 338 340 342 343 342 341 340 336 336 337 337 338 338 339 338 337 334 332 332 331 331 331 329 329 330 335 339 339 339 338 338 338 338 339 339 339 340 339 337 336 336 337 337
307 315 316 316 318 318 319 321 322 317 315 315 312 317 321 326 328 328 330 330 327 329 330 335 346 347 348 350 348 351 351 350 351 351 353 353 353 352 349 347 343 340 338 334 331 330 328 328 328 328 330 335 337 337 339 341 341 342 342 342 340 336 336 338 337 337 338 339 338 335 333 332 332 332 331 330 330 329 328 331 334 335 337 337 337 338 338 338 339 339 339 338 337 336 333 334 337
310 313 313 314 318 318 319 321 320 316 317 317 314 316 323 329 329 330 331 329 327 330 329 338 347 348 349 349 348 350 349 350 352 351 353 353 352 350 347 346 343 341 339 334 331 329 328 328 328 328 329 332 335 337 340 340 341 341 341 342 340 337 338 339 337 338 338 339 337 334 331 331 331 331 332 332 331 330 329 328 330 334 336 337 337 337 338 338 338 339 338 338 337 335 331 331 333
313 313 315 317 317 316 319 319 319 318 318 318 316 317 324 328 329 326 328 328 328 329 329 341 345 348 351 349 350 349 347 350 351 352 352 350 347 347 345 345 345 343 340 335 330 328 328 328 328 328 328 331 335 337 338 338 338 340 341 341 340 340 340 338 337 338 339 338 335 332 330 330 331 332 334 333 333 332 330 328 330 336 336 337 337 337 337 337 338 337 337 337 335 332 330 329 328
313 314 316 317 318 316 317 317 316 317 317 319 317 318 327 329 327 323 325 324 327 327 329 340 342 349 351 348 353 350 347 350 351 351 350 347 346 346 345 346 347 345 342 336 330 329 328 328 328 328 328 330 334 335 334 334 336 339 340 340 341 341 340 338 337 338 337 336 333 331 331 331 332 334 334 334 333 333 332 328 328 333 336 336 336 337 337 337 337 336 336 335 331 329 329 328 325
313 314 316 317 320 319 316 315 314 316 315 317 316 319 327 326 324 323 323 321 324 326 330 339 343 349 351 351 353 350 348 350 349 349 348 346 346 346 345 347 348 347 343 336 331 330 328 328 328 328 329 330 332 331 331 332 334 337 339 340 340 339 338 337 337 337 336 333 331 330 331 331 332 333 334 333 334 333 333 330 329 331 333 334 334 335 336 336 336 335 335 332 330 329 330 328 327
313 314 316 318 320 318 316 315 315 316 317 317 317 319 323 322 322 322 322 320 321 323 332 340 344 348 351 352 353 351 349 349 347 346 346 346 346 345 346 348 348 348 343 335 331 330 328 328 328 329 329 329 330 329 331 332 334 335 337 337 338 337 337 337 337 336 333 331 329 330 331 331 332 333 333 332 333 333 333 331 331 330 330 330 329 331 333 334 334 334 333 330 330 330 329 328 327
315 314 315 316 316 315 315 316 315 316 317 317 318 319 321 320 321 320 319 320 318 323 334 341 345 350 352 352 353 351 349 347 346 344 344 346 345 346 347 349 349 347 342 335 332 330 329 328 328 329 329 329 329 331 332 333 334 334 335 336 337 337 337 336 335 334 332 330 329 330 330 331 332 333 333 332 332 333 333 331 331 331 329 328 328 328 330 332 333 334 331 329 330 329 327 327 326
316 317 315 314 315 315 315 314 313 316 317 317 318 318 319 319 319 319 318 318 318 320 330 340 344 349 353 354 353 349 346 346 346 344 344 345 346 348 349 349 348 346 340 335 333 331 329 329 329 329 329 329 329 331 333 333 334 335 335 336 337 337 335 334 333 332 331 331 332 332 331 332 333 333 333 333 331 331 333 331 330 330 329 329 329 330 330 331 332 332 329 328 329 328 328 327 327
315 318 316 316 318 315 315 312 313 319 318 317 317 317 319 318 318 318 317 318 318 317 330 341 341 348 353 352 352 349 345 343 345 344 343 345 346 348 349 348 347 344 340 336 334 332 331 330 329 329 329 329 329 331 331 332 334 335 335 336 336 335 333 332 332 332 332 333 334 334 333 333 334 334 334 333 331 330 331 331 330 329 329 329 331 331 331 330 331 331 327 328 330 328 328 327 326
314 317 315 318 320 316 315 313 315 315 315 318 318 318 319 317 318 317 318 317 316 321 334 341 341 350 353 352 353 349 345 343 344 344 343 346 347 349 347 347 347 344 341 337 335 334 333 330 329 329 329 330 329 330 330 331 333 333 334 335 333 332 331 332 332 333 334 334 335 335 335 334 336 336 334 332 331 330 330 330 330 329 328 328 329 330 331 332 331 330 329 328 329 329 329 327 325
315 316 315 317 317 314 315 314 315 314 314 319 319 319 318 317 318 317 318 317 317 324 336 341 340 351 353 352 354 348 344 343 343 342 343 345 346 348 347 346 347 346 343 340 337 336 334 330 329 329 329 330 329 330 329 331 331 331 333 333 331 331 332 332 333 334 334 334 335 336 336 336 337 337 334 332 331 330 329 329 329 328 328 328 327 328 330 333 332 331 329 327 328 328 328 327 325
315 315 316 316 315 314 315 315 316 313 315 319 318 318 318 317 319 318 318 318 317 321 332 337 337 345 347 347 350 346 344 343 343 342 343 344 345 346 345 345 346 347 344 342 340 338 334 331 329 329 330 330 330 330 330 331 332 331 331 331 331 332 332 333 334 335 335 335 335 337 336 336 336 336 335 332 331 330 329 328 327 327 326 327 326 326 327 331 333 331 329 327 327 327 327 326 325
315 316 317 315 316 315 315 318 315 314 316 318 318 319 317 317 318 318 320 320 317 322 332 335 335 340 342 344 347 346 344 344 344 344 344 344 344 345 344 344 345 346 345 344 343 339 336 334 331 331 331 331 331 331 331 332 333 333 332 332 332 333 334 335 336 335 336 335 336 336 336 335 334 334 334 332 331 330 329 328 327 326 325 325 323 322 324 328 331 331 329 328 328 328 327 325 325
313 317 317 314 315 315 315 318 316 317 317 317 319 319 319 318 318 318 320 321 318 328 336 336 340 342 343 347 347 346 346 345 345 345 343 342 340 342 343 344 344 345 345 344 344 341 339 337 335 333 334 334 334 335 334 334 335 335 333 335 334 333 335 336 336 336 336 337 336 336 336 335 333 332 332 331 331 330 329 328 327 325 324 322 320 319 321 325 329 330 329 328 328 328 328 327 326
313 316 318 315 316 315 314 316 315 317 317 318 318 318 320 317 318 318 319 322 318 332 342 342 346 349 346 348 347 345 346 345 345 343 340 339 338 338 340 343 343 343 344 344 344 342 342 340 338 337 337 337 337 336 336 335 336 336 334 335 335 334 336 336 336 337 337 337 337 335 334 333 333 332 333 333 332 331 329 330 328 324 322 321 320 320 319 322 326 329 329 327 328 328 327 327 326
313 315 316 315 315 315 315 315 315 317 317 318 317 317 318 317 318 317 317 321 319 332 345 348 349 350 348 347 346 345 345 345 343 340 336 336 337 335 336 339 341 342 343 344 344 343 343 342 339 339 340 340 338 338 337 337 338 338 335 334 335 335 336 336 337 338 337 338 337 335 334 333 333 333 334 335 334 333 331 332 329 324 324 323 322 323 322 322 324 327 328 327 327 326 325 326 326
314 314 315 315 315 315 314 315 315 317 317 316 317 317 317 317 318 318 320 320 319 326 339 348 349 349 349 348 347 346 345 342 339 337 335 334 334 333 334 337 337 340 343 343 344 343 342 342 342 341 342 342 340 339 339 338 338 339 337 334 335 336 336 336 337 339 339 338 338 337 335 334 334 334 334 335 335 334 333 334 331 327 326 326 325 326 328 328 325 326 327 326 325 324 323 325 327
314 315 314 315 314 314 314 314 315 316 317 317 316 316 316 317 316 320 319 318 325 330 335 344 347 347 348 348 348 346 344 341 338 337 335 334 333 332 333 334 334 336 341 343 343 343 342 343 343 343 343 343 342 341 340 339 338 339 338 335 335 336 336 335 335 337 338 337 337 337 336 335 335 335 335 335 335 334 333 334 332 330 329 330 329 328 331 332 329 328 326 325 325 324 325 326 328
314 314 314 315 315 315 315 315 316 317 317 316 316 316 316 316 316 319 317 322 333 338 339 343 344 346 347 347 347 346 344 341 338 336 336 335 333 332 331 333 333 334 339 342 341 341 342 342 343 342 342 342 341 341 341 340 340 339 338 337 337 336 336 334 334 337 338 335 335 336 337 336 335 335 334 335 335 335 334 333 332 331 329 331 333 331 333 332 331 331 329 326 327 328 328 330 330
314 314 315 314 315 315 315 315 316 317 316 316 316 316 315 315 317 317 317 330 339 339 342 343 343 345 345 346 346 343 341 338 336 335 334 333 333 333 333 334 334 333 337 340 340 340 342 342 342 342 341 341 341 341 341 340 340 339 338 338 338 338 337 336 335 336 338 336 335 336 336 336 335 335 334 334 335 334 334 333 333 332 330 331 334 333 333 332 331 332 331 330 330 331 331 331 330
313 314 314 314 314 315 315 315 315 316 316 317 316 316 316 316 318 316 318 334 340 339 342 344 344 345 344 345 343 340 338 335 334 334 333 333 334 333 333 335 335 333 335 339 339 339 341 341 340 341 340 340 339 339 340 340 340 340 339 339 339 339 338 338 337 336 337 337 336 335 335 335 335 336 336 336 335 334 334 334 333 333 332 332 333 333 332 331 331 331 331 331 331 330 331 331 330
314 313 314 313 314 314 315 315 315 317 315 316 315 314 316 316 318 315 318 334 340 340 343 344 345 344 343 342 341 338 337 336 334 333 333 333 335 335 334 335 336 334 336 339 338 337 338 339 338 339 339 338 338 338 337 338 339 339 338 338 338 339 338 337 337 337 337 338 337 336 335 335 335 335 336 335 333 333 333 333 333 333 333 333 333 333 332 332 332 332 331 331 331 330 330 331 330
314 314 314 314 314 315 315 315 315 316 315 315 314 314 316 316 317 315 318 333 338 340 342 344 343 343 341 340 339 338 336 336 333 332 333 333 335 334 333 333 334 334 336 338 336 334 336 337 337 338 338 337 336 336 337 336 337 336 335 336 336 336 336 336 336 336 337 336 335 335 335 335 335 334 334 333 332 334 334 333 334 333 332 333 333 334 333 332 332 331 331 331 331 331 330 330 330
315 314 315 314 315 314 314 315 315 315 315 315 314 314 316 315 316 317 321 329 334 338 342 342 341 341 340 338 337 336 335 334 332 332 333 333 333 332 332 332 332 333 336 337 335 333 333 334 335 336 336 336 334 334 334 334 335 335 335 335 336 335 335 335 334 335 335 334 335 335 334 335 334 333 333 333 333 334 335 335 336 335 333 333 334 335 334 332 331 330 330 331 331 330 330 330 330
314 314 314 314 314 314 315 314 314 315 314 316 315 314 315 316 316 317 322 328 331 336 341 341 340 340 339 338 336 335 334 333 332 333 333 333 333 332 332 333 333 335 336 335 333 332 331 333 335 335 334 333 333 333 332 332 333 333 334 335 335 335 334 334 334 334 335 335 334 334 333 333 334 333 333 333 333 333 334 335 337 336 335 334 334 334 332 332 331 330 330 330 330 330 331 330 330
313 314 313 314 314 313 314 315 314 315 314 316 315 313 315 317 316 318 325 329 330 333 339 342 341 340 338 337 335 334 334 335 335 333 333 333 332 332 332 332 334 334 332 331 332 332 331 331 331 331 332 333 332 333 332 331 332 332 334 335 334 334 333 333 333 333 335 335 333 333 334 333 334 333 333 334 333 333 333 335 336 336 336 334 333 333 332 332 332 330 330 329 330 330 330 330 329
314 313 314 314 313 312 314 315 315 314 314 317 315 312 316 317 316 321 325 330 331 330 335 340 340 339 338 337 335 334 335 334 334 333 332 332 332 332 332 332 333 332 331 330 329 330 329 328 326 328 330 330 330 330 330 330 332 333 334 334 333 333 332 332 333 333 335 334 333 334 334 333 333 333 333 333 333 334 334 335 335 335 335 333 332 333 333 332 332 331 330 329 329 329 329 329 330
314 313 314 314 311 310 313 315 315 314 314 316 315 314 317 316 318 324 324 327 330 328 331 336 338 339 339 338 336 335 336 334 332 332 332 332 333 332 332 334 332 331 330 329 330 329 329 328 327 328 328 328 328 328 328 330 332 333 333 332 331 331 330 331 333 333 334 333 333 333 333 332 332 333 333 332 333 335 335 334 333 334 334 334 333 333 333 332 331 332 331 329 330 330 329 330 331
315 314 314 315 312 310 311 314 315 314 314 316 315 316 318 318 318 322 322 324 327 329 332 335 336 338 339 339 336 335 336 335 333 331 331 331 332 332 333 333 331 331 331 329 329 329 329 328 328 328 328 329 329 328 328 328 329 330 330 330 330 331 331 330 331 332 332 332 331 331 331 331 331 332 332 332 334 335 334 333 333 333 334 334 332 333 333 332 331 332 331 330 330 330 330 331 331
318 317 314 315 313 312 311 313 315 314 315 315 316 317 317 317 319 320 320 320 327 332 333 334 336 337 337 337 335 335 335 335 333 330 330 331 332 332 332 333 331 330 332 331 330 330 331 330 329 330 330 329 327 327 327 327 326 326 328 329 330 332 331 330 330 331 331 331 331 331 331 332 331 331 331 332 334 334 332 332 332 333 333 333 332 333 333 332 332 332 331 331 330 330 331 331 331
320 318 315 315 313 313 311 312 314 314 316 317 317 316 316 318 318 319 318 319 329 335 334 334 336 336 336 336 335 334 334 335 332 329 330 330 331 332 331 332 331 330 332 333 331 331 332 332 332 331 330 328 327 327 326 325 325 325 325 326 328 331 331 330 330 331 331 331 331 330 331 332 331 331 330 331 333 332 331 332 332 332 333 333 332 333 332 332 333 332 331 331 331 330 331 331 330
320 318 317 316 314 313 313 314 315 315 316 316 318 317 316 320 319 320 320 322 330 335 334 334 335 335 335 336 335 335 334 334 331 330 331 332 331 331 331 333 331 330 332 333 333 332 332 333 332 331 329 327 328 328 325 324 324 323 322 323 326 329 330 330 329 329 329 329 329 330 330 330 330 330 329 329 330 330 331 332 333 333 333 333 333 332 332 332 332 332 331 330 330 330 330 331 330
322 320 319 316 313 314 315 316 316 320 320 316 319 320 318 320 320 322 321 322 329 333 334 333 334 333 333 334 335 335 334 333 332 331 332 332 331 331 331 332 331 331 332 333 333 332 332 333 332 330 326 325 327 326 324 323 324 323 322 324 325 326 328 328 327 327 326 326 327 327 327 327 328 328 328 327 327 328 329 330 331 331 331 332 333 333 332 332 332 331 331 330 331 330 330 329 329
325 321 318 316 313 314 317 318 315 324 328 320 320 322 320 320 321 322 323 321 326 330 332 332 331 331 330 332 334 334 334 332 332 332 331 330 331 331 330 332 333 332 333 332 332 332 332 333 333 330 323 323 326 324 325 324 324 325 322 323 325 325 326 324 322 322 322 322 323 323 324 323 324 327 327 327 327 326 327 330 330 330 330 331 332 333 332 332 331 331 331 330 330 330 328 327 327
324 321 319 316 315 314 322 324 316 322 328 321 321 322 321 325 323 321 324 323 323 327 330 331 332 330 329 331 332 333 333 332 332 331 330 329 330 331 329 331 333 332 333 333 331 332 333 333 333 328 321 323 326 325 326 325 324 324 322 322 323 323 322 321 319 320 321 322 323 324 323 322 322 324 325 326 328 326 324 328 330 330 330 330 331 331 332 331 330 330 330 329 329 329 327 326 327
322 319 317 316 314 312 320 325 321 325 327 320 323 325 325 327 325 322 325 326 327 327 327 330 331 331 330 331 332 333 332 331 331 331 330 328 328 330 328 330 333 333 333 333 331 333 334 334 333 327 320 324 327 325 325 323 323 323 322 322 322 321 321 321 321 321 321 322 323 323 323 322 321 322 323 325 327 326 325 326 328 328 328 329 329 329 330 330 330 329 329 329 328 327 327 327 329
324 323 317 316 316 314 317 325 329 332 331 328 325 325 332 332 324 323 324 325 328 325 324 326 328 329 329 330 331 332 332 329 329 330 329 327 327 328 327 329 333 332 332 333 332 334 334 334 333 325 322 326 327 325 323 321 322 323 322 321 321 321 321 321 321 321 321 322 323 322 322 321 321 321 322 321 323 324 326 326 327 326 326 327 328 328 329 329 330 330 329 328 327 327 328 328 328
322 327 324 319 318 318 319 326 329 325 325 330 323 320 335 338 321 320 323 323 324 323 324 324 323 327 327 329 331 332 331 329 328 329 328 327 326 328 329 329 331 332 331 332 332 334 335 335 333 325 323 326 326 324 323 321 321 321 319 319 321 322 321 321 321 321 322 322 323 322 321 321 321 321 321 321 321 321 323 324 324 324 322 323 325 326 327 328 329 329 328 329 329 328 328 327 327
318 325 326 321 319 319 322 323 322 320 322 331 326 320 331 334 323 322 323 321 321 322 324 324 323 325 325 327 330 330 330 330 330 329 329 329 327 329 330 330 331 331 331 331 332 334 334 335 333 325 323 326 324 324 324 322 320 319 317 318 320 321 320 320 322 322 321 321 322 322 321 321 321 321 320 321 321 320 319 319 318 319 320 321 323 324 325 325 326 327 327 327 328 328 328 327 326
319 326 321 319 320 318 324 322 318 321 323 326 326 320 322 324 323 325 322 320 322 322 324 324 324 324 324 327 329 329 330 330 331 331 330 331 327 328 331 331 331 331 330 332 333 333 333 334 332 326 323 325 325 324 324 322 320 318 316 317 319 320 320 320 321 321 320 321 322 322 321 321 320 320 320 320 320 317 316 317 318 319 320 320 321 321 322 323 323 324 325 325 326 326 326 326 325
320 326 320 320 318 318 324 321 316 320 320 319 322 320 317 320 325 326 322 318 319 323 324 324 325 323 321 326 328 329 329 329 331 330 331 330 327 328 331 332 331 330 330 331 332 333 332 332 332 327 324 325 325 325 324 322 319 315 316 319 322 321 320 320 320 320 320 321 321 321 321 319 318 316 316 317 317 315 313 314 316 318 318 319 320 320 320 321 321 322 323 323 323 323 325 325 324
323 323 320 319 318 320 323 320 318 321 321 318 320 319 316 321 327 325 322 320 319 324 325 323 323 323 322 323 325 329 329 331 330 330 330 328 325 327 329 331 331 331 330 330 331 332 331 331 331 330 326 325 326 324 324 320 315 315 318 322 322 320 320 320 320 320 322 322 322 321 319 316 315 314 313 314 314 314 312 312 313 314 315 315 317 319 320 320 320 320 320 320 322 321 321 321 319
323 320 319 318 319 322 320 321 324 323 324 324 321 319 318 322 326 323 322 322 324 326 324 322 322 323 324 321 322 325 325 328 329 330 331 326 324 326 328 330 330 330 330 329 330 331 331 331 330 329 327 325 326 325 323 319 314 316 320 322 321 319 319 319 320 321 322 321 320 319 317 315 315 315 314 314 313 312 312 312 313 314 313 313 314 316 317 317 317 317 316 316 317 318 319 318 316
318 320 320 318 321 324 321 325 329 325 326 326 320 320 320 319 323 324 326 324 323 326 326 325 323 321 322 320 321 321 321 324 327 330 334 332 330 329 327 329 329 329 329 328 329 330 329 329 328 328 327 326 326 325 323 318 316 318 320 321 320 319 318 318 320 322 321 319 318 317 316 315 315 315 315 314 313 312 312 313 313 313 313 314 315 315 315 315 315 314 313 312 311 311 313 314 313
315 319 319 315 318 324 323 325 329 326 327 328 324 322 322 322 324 324 325 323 320 324 325 323 322 321 322 321 321 321 322 326 327 330 334 338 339 331 326 328 328 328 328 327 328 328 328 329 328 328 327 327 327 324 322 319 316 319 321 321 320 318 318 318 320 321 320 318 318 318 317 316 315 316 314 312 313 313 313 312 313 313 314 314 314 314 313 314 313 312 311 310 306 304 306 307 307
314 316 317 315 315 320 323 322 324 325 327 328 327 325 322 324 330 327 322 322 322 322 322 322 323 322 322 321 320 321 324 327 328 329 332 337 337 330 328 330 328 328 328 327 328 327 327 329 329 328 327 326 327 324 323 321 317 320 322 320 319 318 318 318 319 319 319 318 319 318 317 316 314 315 314 312 313 314 314 312 312 313 313 313 313 312 312 312 311 310 310 309 306 303 303 303 303
315 315 316 319 318 322 326 322 322 325 324 323 324 324 321 323 334 333 323 320 320 319 321 322 323 322 321 321 320 322 326 328 329 331 334 335 331 327 331 332 330 330 329 327 328 327 327 328 328 328 326 326 327 324 323 323 318 320 322 319 318 319 318 318 318 318 318 319 319 319 318 316 315 315 314 314 314 315 315 313 310 310 311 313 314 314 313 313 313 313 312 310 307 304 303 302 302
319 316 314 319 321 323 325 322 321 320 320 324 323 323 323 326 335 333 321 319 320 319 322 322 323 323 321 321 322 324 326 328 331 333 336 335 328 328 332 331 330 331 330 328 326 325 325 326 327 327 326 325 326 324 323 323 319 319 322 320 318 319 318 318 319 318 319 320 319 319 318 317 317 316 315 314 315 317 315 313 310 308 309 311 314 314 313 314 313 311 311 310 309 310 308 305 305
319 316 314 320 322 323 324 323 322 317 320 328 324 319 322 323 327 327 319 320 320 319 321 321 323 324 322 323 324 324 325 328 332 333 334 332 326 327 331 330 330 330 329 329 326 324 326 328 327 326 325 325 325 324 322 323 321 320 322 321 318 319 319 318 319 319 319 319 319 319 319 318 318 318 317 315 316 317 315 311 309 308 307 308 312 313 313 312 311 309 309 311 313 314 313 310 309
315 313 316 317 317 324 325 322 320 318 320 323 319 319 320 317 323 325 319 320 320 318 320 321 323 323 323 325 324 325 327 328 331 332 332 328 324 324 328 328 329 328 327 327 325 324 327 327 326 325 324 325 325 324 323 323 322 321 322 322 320 319 319 319 319 320 320 320 319 319 319 319 318 318 319 317 315 317 316 312 308 308 307 308 312 313 311 311 312 310 310 311 312 313 312 311 311
313 313 315 315 316 321 320 318 320 321 320 319 319 320 318 316 323 324 318 321 321 317 318 320 321 322 323 325 325 326 329 329 331 331 330 328 323 322 326 327 327 327 327 326 324 323 324 324 324 325 325 325 323 322 323 323 323 323 323 321 319 319 319 320 319 319 320 320 318 319 320 320 319 319 319 318 317 317 317 314 311 310 308 309 313 314 312 311 313 312 311 311 310 309 310 310 310
315 313 312 314 316 316 316 318 320 321 320 321 321 321 319 323 327 323 320 323 321 318 319 320 320 322 324 325 326 327 328 330 330 329 330 329 323 321 324 325 324 325 326 326 324 324 323 322 324 325 325 324 322 322 324 323 323 325 325 320 319 319 318 319 320 318 319 320 318 318 319 319 319 320 319 319 318 318 317 316 315 314 311 310 312 314 312 311 313 312 311 312 310 309 311 310 308
317 315 313 313 316 317 320 320 316 318 322 322 321 321 325 329 326 321 321 322 322 322 321 320 320 321 323 324 325 327 327 329 329 328 330 327 322 321 323 323 323 322 324 326 326 326 325 324 324 325 324 323 322 321 322 323 324 326 326 321 320 320 318 319 321 320 319 320 320 318 318 319 320 320 320 319 319 318 318 317 316 317 315 312 311 313 313 311 313 313 312 312 311 310 313 312 308
315 315 314 317 324 327 329 325 320 322 325 325 326 325 329 332 327 323 323 321 325 325 322 324 323 321 323 323 325 326 326 328 328 327 329 326 321 321 322 322 322 321 321 323 324 326 326 325 325 324 323 324 323 322 323 324 325 325 324 323 322 322 322 321 322 321 320 320 321 319 318 320 321 320 320 320 320 319 318 317 317 317 318 316 313 313 312 311 312 313 312 312 312 311 313 313 310
Wind_Speed
3 3 5 6 7 8 8 2 1 2 2 2 5 4 7 7 6 10 8 2 2 3 4 6 9 11 11 11 14 14 10 5 2 1 2 5 10 21 27 31 34 34 33 32 32 31 29 27 25 24 22 21 21 21 20 19 19 18 18 19 19 19 18 17 16 16 16 15 15 15 14 14 13 12 11 11 11 10 11 11 12 12 11 12 12 13 13 14 15 16 16 15 14 14 13 12 12
3 5 9 11 10 5 3 2 0 2 2 3 5 5 8 7 7 8 4 3 4 3 6 10 12 15 17 14 14 15 12 9 7 5 4 14 18 20 28 32 34 34 32 31 31 31 29 27 25 24 22 21 21 21 20 19 19 18 18 19 19 19 18 18 16 16 16 16 15 15 14 14 13 12 11 11 11 11 11 11 11 11 12 12 12 12 13 13 14 15 15 14 14 13 11 11 12
6 8 9 9 8 4 2 1 1 2 2 4 6 5 7 7 5 1 5 6 4 6 8 11 12 11 14 14 14 13 8 8 11 8 6 15 15 17 26 30 33 33 31 31 30 30 28 26 25 24 22 21 20 20 19 19 19 18 18 18 19 19 19 18 17 16 16 16 16 15 14 14 13 12 11 11 11 11 10 11 11 11 12 12 12 11 12 13 13 13 14 13 13 12 11 12 11
8 7 8 7 2 2 1 0 3 2 2 5 5 5 6 4 4 5 6 6 5 6 6 8 8 7 14 14 11 11 8 7 10 8 6 11 14 21 26 27 31 31 29 28 28 29 27 26 24 23 21 20 20 19 19 19 18 18 17 18 18 19 19 18 17 16 16 16 16 15 14 14 13 12 11 11 11 10 10 11 12 11 11 11 11 10 11 13 12 12 13 12 12 11 10 10 9
8 6 8 6 1 0 0 1 2 3 4 4 4 5 7 3 6 7 4 5 4 5 5 6 6 6 13 10 5 5 5 7 9 9 8 13 21 26 26 27 29 28 26 26 27 27 26 25 23 23 21 20 19 19 19 18 18 17 17 17 18 19 19 18 18 17 16 16 16 15 14 13 12 12 11 11 11 10 10 11 11 11 10 11 11 11 12 12 11 13 13 11 11 10 9 8 8
7 7 7 6 2 2 0 2 3 4 7 6 4 7 6 4 5 5 3 5 5 5 6 7 9 9 9 6 6 5 3 7 8 9 13 18 23 24 25 26 26 25 25 26 27 27 25 24 23 22 20 19 19 19 19 18 18 18 17 17 18 20 19 18 18 17 17 16 16 15 14 13 13 12 11 11 11 11 10 10 11 11 11 10 10 11 11 11 11 12 11 10 9 8 8 6 6
6 6 3 2 2 2 0 3 5 5 8 8 7 8 6 1 4 3 3 4 4 5 7 9 13 14 7 5 5 9 10 11 9 11 18 19 17 19 23 25 24 23 23 25 27 26 25 23 23 21 20 19 18 19 19 18 18 18 18 17 18 19 19 18 18 17 17 17 16 15 14 13 13 12 11 11 11 11 11 10 11 11 10 9 9 9 10 9 8 9 7 7 6 6 7 5 4
8 4 1 1 1 1 1 4 5 6 8 9 10 7 6 5 5 2 3 4 2 2 7 11 15 14 7 8 6 7 15 17 17 19 21 19 17 19 26 30 26 22 22 25 26 25 24 23 22 20 19 18 18 18 18 18 18 18 18 18 18 19 19 18 17 17 17 17 16 15 14 14 12 12 11 10 10 10 10 10 10 10 9 9 8 8 8 8 7 6 5 6 5 5 6 5 4
7 4 1 1 1 2 3 4 5 8 10 11 13 10 7 2 6 2 2 3 0 3 7 11 14 11 7 12 8 4 13 21 23 22 21 18 18 20 25 30 27 23 23 26 27 25 23 22 21 20 19 18 18 18 18 18 18 19 19 18 19 19 19 18 18 18 17 17 16 15 14 13 12 11 10 9 10 10 10 10 10 9 8 8 7 7 7 7 6 5 6 6 6 6 6 5 5
3 4 2 1 1 3 4 5 6 8 10 11 13 8 4 2 5 2 2 2 2 1 8 14 14 13 10 11 6 3 12 21 23 21 18 18 18 20 23 26 25 25 25 27 27 25 23 21 21 20 19 18 17 17 18 18 18 19 19 19 19 19 19 18 18 18 17 16 16 15 14 12 11 10 10 9 9 9 10 11 10 9 8 8 7 7 8 7 7 7 8 7 6 6 6 6 5
1 3 2 1 2 4 5 5 7 7 9 11 12 8 6 4 5 4 3 2 5 3 12 15 12 13 11 7 3 4 15 21 24 22 19 19 21 23 22 22 22 23 26 28 27 24 23 21 20 19 18 18 17 18 18 18 18 19 19 19 19 19 18 18 17 16 16 15 14 14 13 12 10 9 9 8 8 8 9 10 10 10 8 7 7 7 8 7 8 8 8 7 6 6 6 6 5
2 3 1 2 3 4 5 6 7 8 8 8 9 7 5 5 5 5 3 1 4 3 7 10 9 11 9 6 3 8 19 21 22 22 20 21 23 22 20 21 22 23 27 28 27 25 23 21 20 19 18 17 17 17 17 17 17 18 19 19 19 18 17 17 16 15 14 14 13 13 12 11 10 9 8 8 8 7 9 9 9 9 8 8 7 7 7 7 8 8 7 7 7 6 6 6 6
3 3 1 3 4 4 5 6 7 7 6 6 5 2 4 6 5 5 4 4 5 6 2 10 11 10 7 4 4 8 15 18 21 21 20 21 23 22 21 22 23 25 27 27 26 24 22 21 20 18 18 17 17 17 17 17 17 17 18 18 18 17 16 16 15 15 14 12 12 12 11 10 9 8 8 8 8 8 8 8 8 8 8 8 7 7 6 6 7 6 7 7 6 6 6 5 5
4 3 2 3 4 4 5 5 6 6 5 5 2 4 4 4 4 7 6 5 6 4 6 12 12 11 6 4 4 4 10 20 24 23 23 23 23 22 22 23 23 24 25 25 26 24 22 21 20 19 18 17 17 16 16 16 16 17 17 17 17 16 15 15 15 14 13 12 11 10 10 10 9 9 8 8 8 8 8 7 7 7 7 7 7 6 5 6 6 6 7 7 6 5 5 4 4
5 3 2 3 4 4 5 6 6 6 6 6 3 1 3 3 3 5 4 1 4 5 10 8 9 8 6 7 5 6 15 25 25 26 27 25 23 21 23 24 23 23 23 24 24 23 22 22 22 21 20 18 17 17 16 16 16 16 16 16 15 15 15 14 14 13 12 11 11 10 10 10 10 9 8 8 8 8 8 7 7 7 7 7 7 6 5 5 5 6 7 7 6 4 4 4 4
4 2 1 2 4 5 4 5 7 6 5 4 4 2 4 3 1 2 5 5 2 3 8 4 3 7 11 10 10 16 24 28 27 28 27 24 23 21 22 21 22 23 22 23 23 22 23 24 23 22 20 18 18 17 17 16 16 16 16 15 14 14 14 14 13 13 12 12 11 11 11 11 12 11 10 9 8 8 7 7 7 6 6 6 6 5 5 5 6 7 7 7 6 5 4 5 5
3 3 3 3 4 5 5 5 5 4 2 4 6 7 6 3 2 1 3 6 0 4 9 3 1 7 12 12 21 29 30 30 29 28 25 22 20 19 20 19 20 21 22 23 22 22 23 23 22 21 20 19 18 17 17 17 16 15 15 15 14 14 14 13 13 12 12 12 12 12 12 13 13 12 11 10 9 8 7 6 6 6 6 6 5 5 5 6 6 8 8 7 6 6 5 6 6
4 2 4 4 5 6 6 8 7 3 1 4 4 6 6 5 4 4 4 3 2 7 10 7 8 9 13 22 32 34 32 31 29 27 22 17 13 11 13 16 18 18 21 23 21 22 21 21 21 21 20 19 19 17 17 17 16 16 16 15 15 14 14 13 13 12 13 13 13 12 13 13 12 12 11 10 9 9 8 6 5 5 6 5 5 5 4 5 6 8 8 7 6 6 6 6 6
4 2 4 5 6 7 9 12 8 6 3 2 3 5 3 4 5 3 3 2 1 8 9 10 14 14 17 26 31 32 31 28 26 24 20 15 10 7 5 8 15 17 19 21 20 21 20 21 22 21 20 19 18 17 18 17 17 16 16 16 15 15 14 13 13 13 13 14 14 13 13 12 12 11 9 9 9 9 8 6 5 5 5 4 5 5 4 5 6 8 8 7 6 6 6 5 5
5 4 4 5 6 8 11 13 9 8 4 3 4 5 3 4 5 2 2 5 4 5 9 10 14 15 16 20 24 28 27 23 23 23 19 16 15 11 5 1 6 14 20 21 21 21 19 20 22 21 20 20 19 18 18 17 17 17 16 17 16 17 16 15 14 13 14 14 14 14 13 11 11 11 10 9 9 9 8 7 6 5 5 4 4 4 4 5 5 7 8 8 7 8 7 6 5
4 5 6 6 6 8 12 13 10 7 3 5 5 6 5 6 5 2 2 5 5 2 9 13 15 18 18 17 19 22 20 19 21 21 17 17 17 16 12 6 3 9 20 22 21 21 20 20 22 21 19 20 20 19 18 17 19 17 17 19 18 18 18 17 15 14 14 14 14 15 14 12 11 11 10 10 10 10 9 8 8 7 6 5 5 4 4 5 5 6 7 8 8 8 8 7 5
4 5 8 9 8 9 12 12 7 6 6 6 5 5 4 5 5 1 3 0 3 1 8 16 17 17 18 17 16 16 16 15 17 17 17 17 18 16 13 11 3 7 16 21 21 20 18 18 20 20 19 19 19 19 18 18 20 18 18 20 20 20 19 19 17 16 15 15 15 16 15 14 12 10 10 11 12 12 10 10 10 9 8 6 5 5 4 3 4 6 6 7 7 8 7 6 4
5 5 7 9 10 10 10 10 4 4 5 6 4 5 4 5 5 2 1 1 3 6 13 17 14 13 14 14 13 13 14 14 13 14 17 16 17 16 13 12 4 10 10 19 20 20 18 18 18 19 20 19 18 19 18 19 20 19 18 19 20 21 21 20 19 17 15 16 17 17 15 14 13 11 11 12 11 12 11 11 12 11 10 9 7 7 6 3 4 5 5 6 6 6 4 4 4
7 6 7 9 10 10 9 9 5 2 2 2 4 6 7 6 4 3 1 8 12 15 18 17 14 13 12 10 10 10 12 13 13 15 17 16 17 15 13 16 9 10 10 18 19 20 20 19 18 18 19 19 18 19 19 19 20 20 19 18 18 20 20 20 19 17 14 15 17 17 15 13 14 12 10 11 11 11 11 12 11 11 12 12 10 9 8 5 6 6 5 7 6 4 3 4 5
8 8 8 9 9 10 8 9 8 2 3 1 3 6 9 8 4 5 1 12 17 18 19 18 16 15 13 10 10 10 11 12 14 17 17 16 17 16 14 20 18 7 11 17 18 20 21 20 20 18 18 17 17 18 18 18 20 19 17 16 16 18 20 19 18 18 16 15 15 16 14 13 14 12 11 11 10 11 11 11 12 12 13 13 12 10 9 7 8 8 7 7 6 5 4 5 7
8 10 9 7 7 9 10 10 8 4 1 1 4 8 9 8 5 6 4 12 17 19 19 17 16 15 13 11 10 10 11 11 13 15 16 15 15 16 17 21 22 10 14 15 16 18 21 22 22 20 18 16 16 17 16 17 20 18 15 15 16 15 16 16 16 17 16 16 15 13 13 12 11 10 10 10 10 12 11 10 10 11 13 13 13 11 10 8 8 10 10 8 7 7 6 6 6
6 7 6 6 6 8 10 10 6 4 4 5 6 8 9 8 5 6 4 13 18 19 18 16 15 13 13 12 10 10 10 11 13 15 15 15 15 16 20 22 21 16 19 17 16 16 19 20 20 18 16 16 15 15 14 17 18 15 12 13 14 13 13 13 13 14 13 13 12 12 13 13 11 10 11 11 12 12 12 11 9 9 12 13 13 11 10 8 8 10 12 10 10 9 7 8 8
7 5 5 7 6 7 9 7 5 4 5 8 9 8 9 7 6 7 5 14 20 20 18 16 16 13 13 13 11 9 8 12 16 15 12 13 17 20 24 22 21 25 26 24 21 17 18 17 17 16 15 16 15 13 13 14 16 14 12 11 12 12 12 13 11 10 10 10 11 14 16 14 12 12 13 14 14 13 12 12 10 8 12 13 12 11 10 10 9 9 11 11 10 10 8 9 11
8 6 3 7 6 8 10 6 6 5 4 8 9 7 9 7 7 11 7 13 19 20 17 15 15 12 12 12 10 8 8 12 13 13 13 15 19 22 22 18 19 25 22 22 26 26 23 19 19 18 16 17 15 12 11 10 11 12 11 12 11 10 12 14 12 10 11 11 11 13 14 14 14 14 15 15 14 13 12 12 12 10 12 12 11 11 11 11 10 8 10 10 10 12 10 9 10
7 5 2 4 5 7 9 6 7 7 6 7 7 4 7 9 10 9 8 14 18 19 17 14 13 11 10 10 9 8 8 10 10 12 15 15 16 17 16 17 18 18 18 22 28 30 28 24 23 21 19 19 17 15 13 10 11 12 12 11 10 9 11 14 13 12 12 12 11 10 10 12 14 15 15 14 11 11 11 10 11 12 11 11 11 13 13 12 10 8 9 11 11 12 12 9 10
4 4 2 3 3 7 7 7 9 9 7 7 8 3 7 10 8 6 13 17 17 15 16 14 11 10 10 10 10 9 8 9 13 17 20 20 20 17 13 16 17 18 21 24 26 26 25 23 22 21 20 20 18 17 16 12 14 17 14 12 11 9 10 13 14 15 14 11 10 9 8 10 13 14 13 13 11 10 11 9 9 10 9 9 11 13 15 13 12 9 9 12 13 11 11 10 9
2 1 4 3 4 8 7 8 12 11 8 8 9 4 7 7 5 9 12 16 17 13 15 15 12 12 10 10 10 9 7 9 14 19 23 24 24 19 15 17 19 20 22 23 23 23 22 21 20 19 18 18 18 18 16 14 16 18 15 13 11 10 10 12 14 16 15 12 9 9 9 10 11 12 11 11 13 13 13 10 9 9 8 9 9 12 15 15 13 11 9 12 14 12 10 10 8
2 4 5 5 6 8 7 9 15 14 8 8 9 4 5 4 5 7 8 13 16 13 14 15 13 12 11 9 9 8 7 7 10 15 19 20 21 18 15 18 22 23 22 22 23 21 22 21 20 19 18 18 18 18 16 14 16 16 14 13 12 12 13 14 15 15 15 12 10 10 10 9 8 9 9 9 11 13 12 10 9 9 9 8 8 11 15 15 14 11 9 12 15 14 11 10 8
3 3 6 6 7 7 5 7 12 13 7 7 8 6 6 3 2 7 6 8 13 13 14 14 12 11 11 10 10 9 9 9 9 13 19 21 21 17 15 20 24 25 22 21 21 20 21 22 20 19 18 18 19 19 17 15 14 14 13 14 16 16 17 16 16 15 14 13 12 11 11 11 10 10 11 10 10 10 8 7 8 8 9 8 8 12 15 14 12 10 10 12 14 13 12 10 9
3 4 4 6 8 6 6 6 7 11 9 6 8 7 6 2 3 8 7 7 15 14 12 12 11 10 11 11 11 9 9 10 10 14 22 23 20 17 17 20 26 27 23 20 19 19 21 21 20 20 20 20 20 20 19 17 16 15 14 16 19 22 21 20 18 17 15 15 14 13 13 13 13 13 12 10 9 8 6 7 8 8 9 9 10 13 14 13 11 9 10 12 13 12 11 10 9
4 4 3 5 7 7 7 9 9 10 8 6 8 8 7 5 6 8 7 8 16 15 11 10 9 10 9 9 9 10 11 10 11 17 22 22 20 20 18 21 28 29 25 22 20 21 21 21 21 20 21 21 20 19 18 18 17 16 16 18 23 25 25 24 21 19 17 16 15 14 14 13 12 11 10 8 8 7 6 7 7 7 8 9 11 13 13 13 11 10 10 12 13 12 10 9 10
4 5 5 7 7 7 3 7 10 7 5 5 7 6 7 6 7 8 6 9 15 16 13 10 9 9 9 9 10 11 11 10 13 17 20 20 22 23 21 24 30 30 28 25 23 23 23 22 22 21 21 21 20 20 20 19 19 18 18 21 24 26 27 25 22 20 19 17 15 13 12 11 10 9 8 7 7 7 6 7 7 6 6 8 11 12 12 12 11 11 12 11 12 12 11 9 8
4 5 5 8 7 6 6 6 5 4 6 1 1 1 6 5 4 6 5 9 13 17 16 14 14 11 9 11 11 11 8 9 12 14 18 21 23 24 24 26 29 29 30 28 26 25 23 22 22 21 20 21 21 20 20 19 20 20 19 21 25 25 24 22 19 19 19 18 16 13 12 10 10 10 8 7 8 7 6 7 7 6 5 6 9 11 12 13 12 11 12 11 10 10 9 7 5
4 4 4 6 6 4 6 5 4 5 5 1 6 6 6 6 6 7 2 7 9 14 17 16 16 13 11 11 11 11 10 10 11 12 15 20 23 25 25 27 29 30 30 29 27 25 24 23 22 20 20 21 19 17 17 18 19 19 20 23 25 23 20 18 18 18 18 17 16 14 12 10 10 11 10 9 10 8 6 7 8 6 5 5 7 8 10 13 13 12 11 10 9 8 6 4 4
2 2 2 5 7 4 5 3 4 4 3 3 6 6 6 6 7 9 4 4 6 10 14 14 15 15 14 13 12 14 13 12 12 12 13 17 20 23 24 26 29 30 29 29 28 26 25 24 23 21 21 20 18 16 17 18 18 20 23 25 24 22 21 20 20 19 17 17 15 14 14 12 12 13 12 12 11 9 7 9 9 7 5 4 6 7 8 11 13 12 11 10 8 7 6 4 5
4 5 3 5 8 4 2 3 2 4 5 4 6 6 6 5 5 7 6 0 5 7 10 11 11 11 14 14 12 15 15 14 14 14 13 13 16 20 23 26 28 29 29 28 29 28 26 26 24 22 22 20 18 18 19 20 23 26 28 27 24 24 24 22 21 20 18 18 17 15 14 14 16 15 13 12 12 12 11 10 10 9 7 5 5 6 7 8 9 9 10 11 9 8 7 6 5
4 5 6 7 9 7 3 3 4 5 5 2 4 3 5 6 5 7 7 4 1 5 7 8 7 8 13 15 13 14 15 13 14 15 14 12 14 18 21 25 27 28 30 29 29 29 28 28 25 22 22 19 19 20 20 21 25 28 28 28 26 25 23 21 22 22 20 18 17 16 15 14 15 16 14 13 13 13 13 13 13 12 11 10 8 6 7 8 7 7 7 8 7 7 7 6 6
3 4 5 5 7 8 6 2 3 3 2 3 5 5 4 6 5 7 7 6 4 4 6 7 6 7 11 14 13 13 11 10 11 13 12 11 14 17 19 25 27 28 31 31 28 27 28 29 26 23 22 19 19 20 20 20 23 24 23 24 25 24 22 21 22 22 20 19 19 17 16 15 13 14 14 13 14 13 13 13 12 12 13 15 15 13 13 12 9 8 7 6 6 6 7 7 6
3 4 2 5 7 7 6 3 1 3 2 2 2 6 2 4 6 7 6 6 6 5 5 7 7 7 10 12 12 12 12 12 12 14 14 13 16 19 21 27 30 31 32 31 29 27 28 28 27 26 23 19 19 19 20 20 21 20 21 22 23 23 22 23 23 21 20 20 20 18 17 15 13 12 11 12 13 13 12 12 12 12 13 14 16 17 16 15 14 13 12 11 10 8 7 8 9
6 6 4 3 5 5 5 3 3 2 2 2 4 4 3 4 6 7 7 6 5 6 7 7 6 5 7 11 14 13 12 13 12 13 13 12 16 22 25 28 31 33 34 33 32 30 29 28 28 28 25 20 19 20 20 20 20 20 22 24 24 23 24 24 22 20 20 21 21 19 17 15 14 13 12 12 13 12 13 14 14 12 11 10 12 14 14 14 15 15 14 13 14 13 11 11 12
7 5 2 1 4 6 6 3 2 1 3 3 6 0 2 4 5 5 5 5 3 4 6 6 7 7 7 9 12 10 8 8 9 9 9 11 17 22 26 28 28 32 33 33 33 32 30 29 28 27 26 23 20 21 22 20 21 23 24 25 26 27 26 24 21 20 21 21 21 19 17 16 16 15 14 14 13 12 13 15 14 12 10 9 9 10 12 13 13 13 13 13 14 15 14 14 13
5 3 1 2 2 4 5 3 2 4 2 4 6 3 2 3 5 4 2 3 4 5 4 6 7 10 11 10 10 8 6 6 6 5 5 8 10 13 19 22 25 29 29 28 30 31 29 27 25 24 24 25 23 23 24 23 24 26 25 27 29 28 27 24 23 22 22 22 20 19 18 18 17 15 14 14 13 12 13 14 15 14 13 12 12 11 12 12 12 12 12 11 11 12 13 13 12
1 3 3 3 3 3 3 4 4 3 3 5 3 3 2 3 4 5 4 3 1 4 5 6 8 9 10 10 9 8 9 8 7 6 5 5 4 6 13 18 21 24 25 25 25 25 23 23 25 24 22 24 26 26 25 25 26 25 24 28 29 27 27 26 25 25 24 21 20 20 19 18 17 14 13 13 13 13 14 15 15 14 13 13 13 13 12 12 11 11 10 10 10 10 10 9 9
2 2 5 4 2 3 2 3 2 1 5 4 2 5 2 5 5 5 4 2 2 4 5 8 10 10 10 10 9 9 10 10 8 6 5 6 5 5 8 14 18 21 24 23 21 22 24 26 31 31 26 23 25 28 27 26 26 23 24 29 27 27 28 27 27 25 22 21 21 22 20 18 17 15 13 13 14 14 13 14 14 13 13 13 12 12 11 11 10 10 11 11 11 11 10 9 8
2 2 4 3 1 0 1 2 1 2 4 4 3 5 1 4 3 6 7 4 2 6 8 9 10 10 10 9 9 10 10 9 8 7 5 5 4 5 3 3 13 23 26 22 22 27 30 31 33 31 24 19 20 25 24 23 25 21 22 29 26 27 29 26 27 25 22 23 23 21 19 17 17 15 13 14 14 13 10 11 12 12 13 13 12 10 10 11 10 11 12 11 12 12 11 11 10
4 4 5 4 4 4 3 2 2 3 3 5 1 4 2 3 3 8 8 1 7 8 9 8 8 8 9 9 10 10 10 8 7 6 6 6 5 6 9 11 4 17 25 25 26 27 23 22 24 21 13 8 12 21 20 18 21 19 18 27 28 28 29 26 26 25 23 25 23 20 18 16 15 14 12 12 13 12 10 9 9 12 13 13 12 10 9 10 10 10 10 10 11 11 11 11 11
4 2 4 4 4 5 3 2 4 3 0 3 2 1 3 2 4 9 4 6 10 9 9 9 7 8 10 10 9 9 8 8 7 7 7 6 7 6 11 16 15 10 16 21 20 16 17 17 19 19 14 8 10 20 21 18 20 20 18 25 29 28 29 26 25 25 23 24 23 19 18 17 15 14 13 12 12 11 9 8 8 10 11 12 12 11 10 8 8 8 8 9 10 9 8 9 10
3 2 2 4 5 7 4 1 1 2 2 3 3 2 3 1 3 6 2 5 7 8 9 8 7 9 11 9 8 8 8 8 7 6 6 6 7 9 11 15 18 18 17 19 17 15 16 19 22 24 22 19 17 20 22 22 23 23 20 23 29 28 28 26 25 25 24 23 23 20 19 19 17 16 14 14 13 11 9 7 8 9 9 11 12 11 10 7 6 7 8 8 8 6 5 6 7
1 2 1 1 3 5 4 1 1 1 1 4 3 3 3 2 3 4 2 4 4 6 8 8 8 10 11 9 8 9 8 8 7 6 6 6 9 11 11 14 18 19 20 19 19 22 28 28 25 25 23 25 25 22 23 24 26 26 23 22 27 27 26 26 24 24 24 25 23 21 21 21 19 18 16 15 14 12 10 8 9 9 9 11 11 9 9 8 6 6 7 7 6 5 5 4 4
1 3 2 2 3 0 1 2 2 2 2 3 3 4 2 2 3 3 2 6 6 6 7 8 10 11 10 9 9 10 9 8 7 5 5 5 9 13 15 16 18 18 18 20 21 25 31 28 25 27 26 27 30 28 27 28 28 27 25 24 26 24 23 24 24 24 24 25 24 21 21 22 21 20 18 16 16 14 11 10 9 9 10 11 11 8 8 9 7 6 7 7 6 6 6 5 3
3 3 3 1 4 3 1 2 3 3 3 2 3 3 2 1 3 3 2 4 4 5 7 7 9 10 10 9 9 9 8 7 6 5 5 5 8 13 16 18 20 21 17 18 23 26 29 28 26 28 28 29 33 34 31 31 30 26 23 25 24 22 22 22 23 25 23 24 25 22 21 21 22 21 19 17 16 14 13 11 10 10 10 11 12 10 10 10 9 8 8 8 7 7 7 5 4
1 1 2 2 1 2 1 1 0 2 2 1 0 1 3 4 3 4 4 4 2 4 7 6 6 8 9 9 9 8 8 7 6 5 4 5 7 12 16 17 19 21 21 19 19 21 25 28 28 29 29 30 34 34 31 31 29 23 20 24 23 21 23 22 22 25 24 23 24 23 21 20 21 21 20 18 16 14 13 12 12 12 11 11 13 13 12 13 12 11 11 11 9 8 8 7 5
1 2 2 1 1 3 3 3 3 1 2 2 3 1 5 5 1 4 6 5 5 6 8 7 5 6 8 9 10 9 8 8 7 6 5 4 7 11 14 17 19 20 21 21 20 19 19 21 23 25 27 28 29 30 28 26 25 22 19 21 22 20 19 18 19 24 24 22 22 22 22 21 22 23 21 18 16 15 13 12 12 13 12 12 12 14 15 15 14 13 13 13 12 11 11 10 8
Wind_Direction
277 306 320 315 302 306 296 226 104 273 174 261 252 244 255 244 247 271 280 284 41 21 36 69 53 59 82 89 96 77 52 38 22 153 140 152 126 127 138 140 143 146 148 150 149 148 147 148 149 148 148 148 147 147 146 146 147 146 145 146 145 145 143 139 134 129 130 129 128 128 128 127 123 119 115 114 114 112 111 109 103 100 99 96 97 96 96 95 93 92 91 92 95 99 95 89 93
270 303 306 301 287 285 282 183 131 258 170 278 253 229 252 260 267 272 302 47 68 54 51 58 51 65 84 89 90 73 57 52 67 77 92 124 120 123 136 142 145 147 149 151 149 147 147 148 148 148 149 148 147 146 145 145 145 147 146 146 146 147 145 141 137 131 132 133 131 129 128 127 123 121 116 113 113 111 111 110 107 104 102 98 97 96 97 96 95 93 92 92 96 99 92 91 95
278 292 295 296 275 239 293 314 192 238 183 251 258 242 254 258 259 298 67 69 52 53 56 59 52 55 73 70 67 73 83 76 82 82 103 125 119 126 136 141 145 147 148 148 148 147 147 148 148 149 148 147 146 145 144 142 144 147 147 147 147 148 146 143 139 134 134 136 136 133 129 126 122 117 113 110 111 113 112 107 103 102 103 102 100 100 101 100 97 98 99 96 98 95 89 94 94
282 281 287 300 289 213 325 307 191 204 215 244 265 271 275 254 148 105 75 69 44 48 58 71 57 40 68 69 66 75 91 96 104 107 116 132 129 134 137 139 141 142 143 146 148 147 146 148 148 148 147 145 144 143 141 141 143 146 148 149 148 148 147 144 141 137 137 139 138 136 131 127 123 117 114 112 111 113 115 111 106 105 109 109 109 108 102 103 104 106 104 98 100 98 98 100 93
282 271 272 276 283 257 174 246 217 191 225 239 259 287 298 310 101 102 80 77 71 65 70 96 94 60 67 63 53 75 90 98 108 107 109 130 132 134 135 135 135 135 139 146 149 147 147 148 148 148 147 144 143 140 139 139 142 144 148 150 148 149 148 145 143 140 140 140 139 136 132 128 124 119 116 114 112 110 113 114 115 116 118 116 117 117 112 115 119 117 109 101 102 101 110 112 103
289 288 273 252 248 304 33 258 266 241 242 235 250 274 285 335 50 84 95 93 76 68 73 90 106 91 77 63 49 48 101 115 110 112 123 133 131 127 127 126 126 133 142 149 151 148 147 148 148 148 147 145 142 137 136 137 139 141 145 148 148 149 149 147 144 142 141 140 139 136 132 129 124 121 119 117 114 110 109 113 118 119 119 118 119 124 125 127 123 120 116 109 106 103 112 121 122
275 295 284 226 270 292 186 249 258 263 258 245 246 261 253 190 68 44 44 76 39 31 69 91 105 95 82 93 61 35 69 111 119 121 124 122 113 111 119 123 128 138 147 152 151 148 147 149 149 148 147 143 139 136 135 135 136 139 143 147 148 149 149 147 144 142 142 141 140 137 134 130 126 123 122 119 114 112 110 114 121 123 121 119 121 126 132 135 126 118 116 112 108 101 106 115 135
257 268 304 136 312 261 206 254 253 254 264 263 259 260 238 166 105 55 45 57 10 40 97 100 97 88 64 79 86 42 72 101 108 114 120 118 115 123 133 133 135 140 148 153 151 149 148 150 149 148 146 140 136 134 134 134 135 139 143 146 147 148 147 146 144 143 142 142 140 137 133 129 127 124 123 120 115 115 115 117 123 126 124 121 122 124 132 141 140 126 112 107 103 94 95 97 106
247 229 290 271 233 260 249 253 249 249 257 264 266 264 252 151 77 44 16 31 153 178 136 116 95 95 93 83 92 67 84 101 104 110 121 124 127 135 138 132 132 140 150 155 152 150 149 150 149 147 145 140 135 133 133 132 135 139 142 144 145 147 146 145 144 144 144 143 141 137 135 131 128 127 125 122 118 117 118 119 122 126 125 123 126 123 127 136 138 122 111 110 104 98 94 94 93
227 204 236 267 239 275 267 257 251 252 255 258 261 249 226 137 113 155 344 4 316 339 108 101 93 107 114 96 96 103 104 107 103 105 116 122 129 138 134 126 134 145 151 153 151 150 149 150 149 147 145 140 137 134 133 133 137 140 142 144 144 146 145 144 144 145 145 143 142 139 138 134 132 130 127 126 123 119 119 122 123 126 127 125 127 122 121 122 121 113 110 110 107 106 96 89 77
250 228 194 256 277 264 254 261 259 261 261 262 264 237 187 160 141 123 55 358 335 16 108 95 96 115 110 103 119 121 109 108 106 109 122 131 136 138 130 127 139 147 148 151 151 151 150 150 149 148 145 142 139 136 135 136 139 140 142 144 144 145 143 143 145 145 144 144 144 141 140 137 136 134 131 131 130 126 122 124 125 127 129 127 123 118 120 117 117 115 110 110 113 111 95 81 65
250 267 166 225 238 235 246 258 266 273 275 274 273 250 167 121 101 103 99 106 359 325 134 116 132 130 113 119 150 112 102 109 119 121 130 136 135 130 131 135 140 145 148 150 151 151 150 148 147 147 147 143 141 140 140 140 141 142 143 143 143 142 141 143 145 144 145 146 145 141 140 139 139 140 140 137 134 135 130 126 127 127 125 123 120 118 124 125 125 123 115 114 119 112 101 87 69
215 258 188 237 233 234 254 260 271 282 292 285 283 315 105 101 86 83 54 52 19 319 142 130 141 120 103 113 125 112 106 122 131 131 132 133 132 126 132 137 136 141 146 150 150 149 148 146 146 147 148 146 146 146 144 143 144 145 145 145 144 143 142 144 145 146 148 146 144 143 142 141 142 145 146 143 138 138 135 129 127 125 122 121 123 127 133 134 135 134 126 121 124 120 117 100 72
206 238 211 252 268 262 267 269 279 286 285 269 291 15 47 62 65 74 42 5 357 0 98 123 124 96 92 109 116 130 132 137 134 134 133 129 127 123 130 133 131 137 145 149 147 146 146 147 149 151 153 153 152 150 147 147 147 149 149 148 148 146 145 147 148 149 148 146 146 145 145 144 147 151 150 149 144 140 139 134 130 126 126 127 125 129 137 140 144 147 139 132 134 134 133 113 76
208 239 219 253 281 280 275 267 277 283 270 253 266 33 96 59 52 93 113 28 360 83 106 129 125 102 144 153 156 169 147 143 138 136 134 128 125 125 135 135 132 136 143 147 143 144 147 152 156 157 159 157 155 154 153 152 152 153 153 153 152 151 151 151 151 151 150 150 150 149 148 148 151 155 155 152 147 146 145 142 141 137 134 132 128 127 133 140 147 153 148 138 134 138 148 137 95
214 231 245 266 272 278 273 270 282 281 278 283 310 338 108 108 108 152 145 121 1 103 112 160 155 130 162 160 148 146 141 139 135 134 131 128 126 126 134 136 134 135 140 142 140 147 156 161 161 160 161 160 159 158 158 158 157 158 158 160 159 158 158 157 156 155 155 155 156 154 152 152 153 156 158 155 150 151 151 151 152 147 143 136 133 129 132 144 152 159 157 139 127 135 150 146 122
250 227 246 270 263 264 261 259 267 250 284 359 4 9 26 36 71 343 81 104 272 71 87 101 96 128 149 138 130 133 136 136 132 131 126 123 123 120 126 132 132 134 139 139 142 154 162 162 161 162 161 161 163 161 162 162 161 164 164 165 166 168 167 165 163 160 160 159 158 157 158 157 156 158 162 158 155 157 159 164 164 154 149 141 140 138 136 147 157 166 163 145 131 135 142 144 138
250 202 215 245 244 247 252 250 264 278 307 4 23 47 29 357 28 12 20 90 149 79 78 81 73 92 114 117 123 128 132 134 133 128 116 110 107 102 117 130 131 133 138 140 148 159 160 158 162 165 162 164 166 165 167 165 166 169 169 170 173 176 173 170 168 164 163 159 159 161 159 158 158 161 163 162 165 171 169 172 176 161 152 147 142 142 143 152 161 172 169 157 145 143 150 154 153
229 205 208 225 235 244 260 259 285 323 309 359 32 61 35 337 21 12 342 315 43 82 83 84 88 94 106 116 121 126 130 132 130 122 111 106 100 82 85 125 137 137 136 142 154 159 158 160 166 166 163 167 168 169 172 170 169 172 175 176 178 180 179 178 175 170 165 160 163 165 163 162 163 163 163 170 176 180 178 179 184 173 158 149 143 140 144 156 166 175 177 177 168 163 171 178 171
218 213 233 244 246 255 267 268 295 312 306 30 32 36 359 345 15 316 326 332 329 108 122 112 112 117 119 123 124 129 132 127 121 121 123 123 121 127 140 171 157 149 141 145 156 160 161 164 167 166 167 171 173 175 174 173 171 173 180 183 186 186 185 185 183 177 171 169 169 169 170 167 166 167 169 176 182 188 190 187 188 187 172 160 161 155 147 159 172 179 184 190 192 185 179 181 172
209 199 225 248 260 270 272 277 306 318 348 43 24 18 356 344 346 262 44 5 322 99 137 140 137 135 133 133 132 133 129 118 118 124 130 128 127 137 156 173 236 172 150 147 154 159 162 164 167 168 172 174 175 178 176 175 173 173 182 189 193 191 190 191 189 183 178 181 179 176 175 172 172 176 179 179 184 192 196 196 195 196 192 186 191 187 164 167 183 188 189 192 197 197 184 180 181
227 220 224 237 249 263 274 281 321 4 15 27 18 4 337 320 319 250 76 118 257 280 145 144 142 141 139 139 136 132 124 120 122 126 131 133 131 135 144 139 193 218 155 147 152 157 161 161 165 168 172 175 176 179 179 177 176 176 184 192 196 196 194 194 194 188 184 190 193 190 183 179 181 185 192 185 185 194 200 204 203 202 206 208 213 214 198 184 195 192 190 190 190 195 187 189 220
227 251 237 241 243 248 272 281 304 48 7 360 360 332 316 305 305 296 26 92 117 109 127 129 127 127 126 131 128 124 124 120 119 123 126 126 122 129 135 121 176 249 175 152 156 158 162 164 168 170 173 178 180 184 183 177 176 181 188 195 198 198 197 198 199 191 185 193 201 202 192 183 185 193 199 188 187 197 203 207 207 209 212 212 212 216 223 231 208 185 170 172 178 196 207 225 232
224 248 243 246 253 254 270 279 289 88 131 338 337 321 312 299 306 304 33 95 97 97 105 107 102 98 98 99 98 105 107 104 102 99 104 110 112 125 136 127 149 254 209 164 163 164 165 169 172 175 178 182 183 185 185 178 177 184 190 196 200 201 202 203 202 195 189 193 202 208 202 188 184 189 194 190 196 203 207 209 213 218 214 210 208 209 219 215 192 185 170 169 172 198 235 235 201
231 234 240 245 260 271 279 281 293 331 140 76 318 293 287 282 288 286 192 115 110 103 102 102 98 95 94 92 85 87 87 91 93 88 94 108 117 128 142 138 139 219 219 169 168 172 170 174 174 176 178 181 183 181 184 179 177 184 192 199 202 204 208 209 206 202 198 195 202 212 214 203 184 178 185 196 210 212 214 214 217 220 213 206 203 204 205 189 191 199 188 179 179 191 219 218 190
229 227 229 228 248 276 284 279 286 305 271 136 263 260 261 269 275 272 214 129 119 111 109 108 107 108 108 102 93 94 95 95 96 100 107 116 132 146 149 138 130 176 218 177 167 174 174 179 177 176 176 179 181 177 179 177 176 185 195 202 204 204 205 205 203 203 203 201 202 207 216 217 194 175 179 194 211 211 207 205 209 209 203 199 196 197 193 191 208 206 192 190 196 194 205 209 186
252 244 245 237 244 263 268 264 256 269 258 213 235 251 246 244 234 256 203 134 121 112 111 108 108 109 107 102 99 102 100 102 111 117 117 130 151 156 156 145 137 181 211 179 163 165 170 177 173 172 173 175 177 173 174 173 177 183 188 197 202 201 201 200 197 197 198 197 197 200 207 210 197 178 174 188 202 199 192 189 186 183 186 189 188 188 192 203 210 195 188 189 190 190 200 205 195
287 295 287 270 271 271 269 261 243 252 238 210 223 251 253 241 210 231 202 136 126 118 116 114 112 112 109 108 108 107 103 113 123 126 133 155 161 166 173 161 157 188 196 180 176 170 165 170 172 170 168 170 166 161 161 163 170 173 176 186 189 193 199 202 201 195 190 189 194 198 200 201 194 186 184 192 198 195 191 187 179 173 180 184 183 185 192 199 192 185 189 186 182 184 191 190 190
274 289 305 287 298 280 272 268 256 259 230 203 209 252 268 263 222 214 185 132 125 118 116 114 114 115 114 112 109 110 118 126 131 139 155 165 164 175 179 155 157 182 179 167 170 173 174 173 171 166 163 169 164 156 151 150 161 168 173 176 178 186 190 192 194 188 187 191 190 187 192 195 191 192 195 200 202 198 197 189 182 183 189 192 191 191 192 186 177 185 192 186 186 189 186 170 172
250 264 263 281 303 274 258 249 248 245 236 201 184 244 264 265 249 206 143 121 121 118 119 118 117 117 118 114 110 120 130 136 145 153 160 163 166 178 169 141 155 168 145 133 139 153 164 160 152 143 142 154 159 162 158 153 169 177 171 159 164 177 174 179 183 181 185 191 188 181 186 184 182 190 198 204 207 207 206 197 189 191 194 200 198 197 196 184 176 189 189 185 189 192 192 178 169
266 294 272 225 249 260 244 223 231 227 227 189 162 220 252 266 263 161 127 127 129 127 126 124 126 127 128 124 123 135 146 155 157 157 162 164 169 183 170 148 159 153 133 126 125 133 141 139 137 133 135 143 145 152 150 143 156 166 163 150 148 153 154 163 170 177 183 189 193 192 182 170 177 185 187 194 198 208 219 216 206 204 198 197 198 198 198 188 184 186 179 179 177 176 183 176 171
232 261 281 237 214 253 246 215 215 211 216 177 153 217 255 268 244 153 134 135 137 135 130 130 137 136 136 134 132 142 153 159 157 163 169 166 173 190 184 161 158 148 134 130 131 132 132 132 138 138 140 143 140 144 144 131 133 143 148 144 140 138 143 150 155 164 172 177 183 185 178 170 175 174 166 180 191 199 213 215 214 214 200 196 199 194 192 189 188 188 175 172 166 158 162 158 161
230 191 240 241 219 248 252 212 206 204 204 161 151 218 262 269 223 164 129 135 137 133 133 138 143 141 140 135 135 146 154 156 159 175 177 173 184 198 186 165 155 150 142 138 139 137 135 136 141 143 144 144 143 144 143 133 129 134 141 148 152 141 132 132 134 143 150 155 162 168 168 162 164 164 157 169 189 199 206 209 208 207 200 201 203 193 191 189 189 190 172 163 161 154 154 152 154
275 231 236 247 237 242 230 199 199 195 181 148 157 215 258 279 176 137 123 134 130 131 140 142 142 140 143 142 147 157 159 163 169 180 182 184 192 192 177 163 154 153 152 148 149 146 141 140 142 145 146 146 143 139 137 136 136 138 141 151 160 148 130 121 119 122 124 126 138 151 158 158 166 176 177 177 190 199 201 204 203 204 207 209 205 195 190 188 189 192 170 158 160 158 158 156 148
284 266 239 264 265 248 205 193 198 184 171 151 163 216 249 252 135 140 159 143 126 136 146 143 144 144 148 151 154 158 159 169 179 179 183 189 190 183 175 163 156 157 156 154 156 154 147 145 147 146 146 145 140 138 138 139 142 144 145 141 144 145 137 127 122 119 116 118 126 136 143 149 157 167 176 183 191 193 192 200 195 192 202 209 204 194 189 187 185 188 177 164 162 159 160 157 146
316 305 259 281 282 260 219 190 181 170 165 158 165 212 239 205 183 178 183 143 130 141 143 141 150 148 154 158 154 158 161 172 183 180 184 189 186 183 177 162 159 159 159 161 160 159 155 150 153 152 151 147 142 145 144 143 143 143 145 138 133 138 139 133 128 125 124 124 127 128 132 139 147 153 154 154 162 170 176 188 187 181 195 207 200 189 188 190 186 181 178 171 165 158 158 161 156
336 334 315 315 310 290 274 156 164 149 132 178 181 211 241 217 208 211 189 138 133 141 142 147 155 152 161 166 162 166 165 168 174 178 185 183 179 183 175 160 160 159 159 164 161 161 160 157 159 157 155 150 146 151 150 150 154 151 148 143 136 135 135 132 128 130 130 129 130 131 134 138 145 148 138 135 136 135 149 162 163 166 187 207 202 194 192 189 185 181 176 173 170 163 161 167 168
0 352 328 323 320 315 9 84 144 108 95 192 330 332 272 271 274 258 189 143 142 147 150 157 163 165 173 173 167 164 159 161 166 172 180 178 177 184 177 161 160 160 161 165 165 164 163 164 166 161 157 154 150 154 158 160 162 162 156 147 141 136 135 133 127 130 132 130 130 130 135 138 144 143 133 144 140 117 123 147 151 150 161 190 197 202 204 192 182 181 180 177 174 171 171 178 182
11 358 341 314 304 331 3 43 70 62 83 358 8 13 300 304 325 310 219 159 154 153 158 163 165 167 175 176 166 158 159 167 171 169 174 178 181 184 176 165 166 166 164 166 168 167 166 168 170 165 158 156 158 164 172 175 170 165 159 150 144 135 131 129 122 124 128 132 132 129 130 132 139 136 123 132 144 130 114 132 146 149 146 165 179 188 200 194 185 186 188 185 181 183 187 195 204
333 300 328 291 289 349 345 333 59 52 72 87 40 10 314 320 340 327 292 176 129 141 156 160 165 168 175 177 164 160 166 173 175 171 175 182 182 182 177 169 168 168 166 167 168 168 169 173 175 170 160 158 167 168 164 168 162 152 147 144 140 131 125 124 122 123 123 127 129 124 118 116 123 128 119 117 128 134 125 120 128 133 129 142 151 149 165 183 190 193 196 198 200 206 210 208 208
291 243 214 264 285 332 340 302 23 24 16 62 55 14 318 320 330 311 296 139 99 137 149 146 160 162 166 171 163 163 169 172 173 171 179 184 180 181 179 172 170 170 168 168 170 171 173 178 179 173 164 165 174 168 156 149 144 139 136 134 131 129 130 130 127 124 120 118 121 120 113 110 115 121 123 117 113 119 125 123 118 111 102 116 136 128 136 165 181 189 197 206 212 217 214 194 186
308 255 215 229 268 290 288 320 44 43 351 327 89 51 295 301 303 282 285 318 32 161 145 135 148 136 148 163 165 169 173 171 170 171 177 183 179 176 176 175 172 173 173 170 171 173 176 180 181 177 170 173 178 172 164 153 144 140 138 136 136 136 137 136 131 127 124 120 119 120 114 110 113 116 121 121 113 110 112 116 114 105 96 102 119 125 127 139 147 160 177 192 198 201 198 178 171
296 261 245 244 263 277 265 264 79 105 269 251 136 134 265 302 304 282 280 299 289 181 136 126 134 112 134 160 169 169 165 155 158 168 174 175 174 170 172 178 177 176 176 172 170 172 176 177 178 177 174 179 180 176 176 166 154 150 148 144 143 144 141 136 133 129 127 123 119 118 113 108 112 116 119 117 115 112 107 109 111 110 105 102 108 114 116 115 115 123 131 138 150 168 182 172 164
248 238 282 307 287 283 271 263 186 175 202 307 147 143 179 287 279 277 282 299 289 219 156 124 135 133 134 150 165 167 162 158 159 170 178 175 174 172 172 178 181 180 177 174 173 173 173 172 175 175 172 180 186 183 184 178 167 161 154 148 147 148 142 136 135 130 127 124 120 119 117 115 114 117 121 120 117 112 105 110 116 118 115 109 110 113 114 111 108 112 115 115 114 122 143 137 130
235 222 200 274 296 314 312 300 269 204 114 306 264 158 155 266 273 289 296 302 289 214 174 128 117 134 140 146 162 169 164 163 164 171 177 171 170 174 175 178 183 182 178 179 182 180 175 171 173 173 168 177 192 191 188 184 175 165 156 153 150 145 141 139 135 129 128 127 123 123 123 121 116 113 116 122 124 114 101 107 116 119 119 119 118 114 114 114 111 113 116 113 108 108 116 114 110
224 217 191 16 351 334 325 316 301 35 98 233 264 153 116 276 284 299 308 307 284 212 179 146 111 91 87 113 145 158 148 155 168 167 168 172 175 178 179 179 182 184 182 182 186 187 184 179 178 176 169 175 195 197 191 185 173 166 162 158 150 143 141 139 135 134 136 134 129 129 126 121 118 114 112 116 124 123 108 104 105 106 107 112 123 122 119 117 111 108 111 114 115 113 116 119 115
200 160 98 39 345 299 302 312 49 64 22 248 247 241 183 261 281 254 255 275 231 206 177 153 124 100 89 90 112 128 121 141 154 133 139 171 178 179 180 180 184 187 183 180 186 189 186 182 181 182 175 177 193 198 192 184 173 172 171 161 152 148 146 143 141 143 144 140 135 133 131 126 123 120 118 116 120 124 118 111 105 102 100 96 103 110 109 109 109 107 108 116 124 123 124 128 126
202 109 72 43 340 320 335 339 34 74 277 254 244 291 238 225 266 242 239 298 215 176 153 133 117 102 98 93 96 101 95 97 101 93 93 107 119 152 175 186 189 190 187 181 181 179 175 173 178 186 183 180 191 197 192 185 180 182 176 163 157 155 152 149 149 149 147 145 139 138 137 133 130 128 127 124 121 121 120 118 114 110 110 104 100 102 103 106 109 111 113 115 121 129 139 143 137
326 79 75 61 347 349 4 329 8 151 253 259 52 31 334 230 242 246 250 320 61 108 117 122 116 103 97 97 94 89 88 90 90 90 80 75 81 117 169 193 194 193 196 185 165 161 169 175 180 187 188 183 188 192 191 188 189 190 178 167 163 161 158 156 154 153 154 152 146 144 145 142 140 139 136 132 127 124 123 125 125 120 117 114 111 111 114 118 117 116 117 115 113 119 130 137 134
280 134 106 119 157 46 281 270 271 235 270 293 87 94 292 270 270 286 288 296 59 82 96 111 114 109 104 101 93 83 82 82 80 78 68 63 50 25 29 191 196 200 199 181 165 173 179 181 183 184 184 183 184 186 189 191 196 199 182 172 168 165 164 160 159 159 158 157 154 152 153 149 147 148 142 136 130 126 127 129 131 131 127 123 119 116 114 115 116 116 115 112 109 112 116 119 120
243 201 149 154 157 156 195 199 179 222 276 310 17 126 219 262 254 270 281 50 80 77 87 92 89 95 96 88 82 79 79 75 70 65 53 41 13 5 34 50 108 197 193 177 177 178 164 161 171 169 164 170 177 181 183 184 197 214 196 178 174 171 168 164 162 163 160 162 162 158 158 153 148 150 146 138 132 133 138 137 135 137 137 133 128 124 123 122 119 116 116 114 109 106 108 111 113
268 237 139 168 177 148 154 187 191 179 25 313 298 193 215 202 241 260 257 98 98 98 95 91 79 74 79 82 81 80 78 72 65 55 38 13 4 37 68 67 76 127 156 157 165 151 120 134 159 159 160 171 173 177 176 171 193 226 220 186 178 175 171 166 165 166 163 166 168 164 164 161 153 152 149 142 141 148 154 152 148 145 143 144 141 137 135 137 137 130 125 118 108 99 96 100 103
284 309 165 194 167 132 122 262 263 78 47 275 238 257 290 321 284 273 197 117 116 117 111 110 103 85 84 90 87 83 80 74 70 59 38 14 22 57 81 84 92 106 122 136 145 144 152 172 175 169 174 179 174 176 176 172 189 223 229 193 181 179 173 169 169 171 170 169 170 170 168 166 161 160 157 152 155 165 168 162 160 155 149 149 149 150 151 151 151 139 129 119 110 106 100 93 89
26 319 258 236 118 115 105 95 330 55 233 258 211 215 258 228 275 296 160 164 162 137 130 122 108 96 95 100 96 93 90 81 76 59 39 32 31 44 65 77 93 114 131 142 150 163 179 187 178 168 171 172 170 176 181 178 188 213 223 198 182 179 176 173 173 174 175 173 171 171 172 171 170 168 164 162 165 173 175 173 172 168 162 155 153 162 169 163 161 153 141 137 136 144 144 117 94
228 247 300 44 108 137 53 129 183 194 212 276 249 231 245 185 225 269 237 223 204 158 142 128 118 114 109 107 104 98 93 85 77 55 39 42 37 43 58 65 73 93 121 143 152 165 179 185 175 168 168 166 168 180 187 184 190 209 216 201 187 182 179 179 179 178 179 178 172 169 171 173 173 173 169 168 172 178 180 179 179 178 176 169 164 176 185 173 179 187 167 164 170 166 163 150 145
296 271 311 26 142 160 192 174 168 171 195 260 279 278 315 282 238 256 293 266 221 155 140 130 126 126 120 116 111 101 98 97 95 79 53 48 49 53 61 65 64 67 84 125 148 161 173 178 173 169 168 167 173 184 189 187 193 206 208 198 192 189 187 188 186 182 182 181 174 168 169 172 174 176 174 173 177 182 185 186 189 190 188 183 177 184 194 186 191 205 191 188 196 178 175 182 176
27 344 308 309 356 86 58 321 46 125 159 195 355 319 286 268 278 326 351 355 23 106 121 116 113 120 122 119 113 108 110 108 104 102 78 57 60 63 65 69 70 70 72 92 123 145 162 172 174 170 168 170 177 186 191 191 193 198 199 195 193 192 193 195 193 188 184 180 176 172 170 170 173 177 178 179 183 187 191 191 195 199 198 195 191 191 199 196 197 208 203 203 211 194 192 212 209
140 187 181 166 117 87 64 349 330 52 121 161 136 188 264 258 319 356 347 12 49 89 97 73 60 102 114 114 115 115 118 120 119 116 108 89 75 71 71 73 73 74 76 82 92 107 134 157 168 170 169 172 178 185 190 191 190 191 191 191 189 186 185 183 183 185 179 169 167 169 167 164 167 175 179 183 188 192 198 199 202 208 208 208 206 203 206 205 203 210 211 209 213 203 199 215 221